FW0245 Weather Reports


Display with metric or nautical units.
time (UTC)temp
F
wind
direction
speed
MPH
gust
MPH
rain 1hr
in
rain 24hr
in
rain mn
in
humidity
%
barometer
mb
20260506231526 52 306 0.0 0.0 0.00 0.74 0.17 61 1015.3
20260506231026 52 310 0.0 0.0 0.00 0.74 0.17 58 1015.4
20260506230528 52 327 0.0 0.0 0.00 0.74 0.17 58 1015.4
20260506230038 52 327 0.0 0.0 0.00 0.74 0.17 57 1015.6
20260506225525 52 321 0.0 0.0 0.00 0.76 0.17 58 1015.7
20260506225025 52 291 0.0 0.0 0.00 0.76 0.17 58 1015.7
20260506224525 53 279 0.0 0.0 0.00 0.76 0.17 58 1015.8
20260506224024 53 313 0.0 0.0 0.00 0.76 0.17 58 1015.7
20260506223523 53 284 0.0 0.0 0.00 0.76 0.17 59 1015.7
20260506223029 53 355 0.0 0.0 0.00 0.76 0.17 57 1015.6
20260506222525 53 256 0.0 0.0 0.00 0.76 0.17 57 1015.5
20260506222022 53 296 0.0 0.0 0.00 0.76 0.17 56 1015.4
20260506221521 53 309 0.0 0.0 0.00 0.76 0.17 56 1015.4
20260506221021 53 318 0.0 0.0 0.00 0.76 0.17 55 1015.4
20260506220521 53 278 0.0 0.0 0.00 0.76 0.17 57 1015.4
20260506220021 53 311 0.0 0.0 0.00 0.76 0.17 55 1015.4
20260506215520 53 284 0.0 0.0 0.00 0.82 0.17 56 1015.3
20260506215020 53 250 0.0 0.0 0.00 0.82 0.17 55 1015.3
20260506214522 53 308 0.0 0.0 0.00 0.82 0.17 55 1015.3
20260506214019 53 283 0.0 1.0 0.00 0.82 0.17 53 1015.3
20260506213521 53 315 0.0 1.0 0.00 0.82 0.17 55 1015.0
20260506213018 53 335 0.0 2.0 0.00 0.82 0.17 56 1014.9
20260506212518 53 342 0.0 2.0 0.00 0.82 0.17 54 1014.8
20260506212017 53 294 0.0 2.0 0.00 0.82 0.17 52 1014.9
20260506211521 53 295 0.0 1.0 0.00 0.82 0.17 55 1014.9
20260506211017 53 311 0.0 1.0 0.00 0.82 0.17 55 1014.9
20260506210522 53 323 0.0 0.0 0.00 0.82 0.17 55 1014.9
20260506210036 53 281 0.0 7.0 0.00 0.82 0.17 54 1015.0
20260506205515 53 287 0.0 7.0 0.00 0.89 0.17 54 1014.9
20260506205019 53 300 0.0 2.0 0.00 0.89 0.17 54 1014.8
20260506204515 54 291 0.0 2.0 0.00 0.89 0.17 53 1014.8
20260506204014 54 340 0.0 2.0 0.00 0.89 0.17 54 1014.9
20260506203514 54 316 0.0 2.0 0.00 0.89 0.17 53 1014.7
20260506203014 54 272 0.0 7.0 0.00 0.89 0.17 54 1014.7
20260506202519 55 328 0.0 9.0 0.00 0.89 0.17 54 1014.6
20260506202013 55 329 0.0 8.0 0.00 0.89 0.17 52 1014.6
20260506201519 55 274 0.0 3.0 0.00 0.89 0.17 56 1014.5
20260506201014 54 348 0.0 8.0 0.00 0.89 0.17 58 1014.6
20260506200514 54 322 1.0 8.0 0.00 0.89 0.17 57 1014.5
20260506200013 54 306 0.0 5.0 0.00 0.89 0.17 56 1014.5
20260506195512 54 332 0.0 5.0 0.00 0.89 0.17 56 1014.7
20260506195012 54 349 0.0 2.0 0.00 0.89 0.17 59 1014.6
20260506194516 54 328 0.0 0.0 0.00 0.89 0.17 59 1014.7
20260506194016 54 331 0.0 3.0 0.00 0.89 0.17 55 1014.8
20260506193511 54 315 0.0 3.0 0.00 0.89 0.17 57 1014.8
20260506193021 54 279 0.0 1.0 0.00 0.89 0.17 54 1014.9
20260506192511 54 360 0.0 1.0 0.00 0.89 0.17 56 1014.6
20260506192010 54 303 0.0 8.0 0.00 0.89 0.17 52 1014.8
20260506191512 54 288 0.0 8.0 0.00 0.89 0.17 53 1014.6
20260506191010 54 346 0.0 3.0 0.00 0.89 0.17 57 1014.6
20260506190511 54 329 0.0 3.0 0.00 0.89 0.17 60 1014.6
20260506190012 54 304 0.0 2.0 0.00 0.89 0.17 55 1014.6
20260506185512 54 321 0.0 10.0 0.00 0.92 0.17 56 1014.6
20260506185010 54 346 0.0 10.0 0.00 0.92 0.17 55 1014.5
20260506184609 54 320 0.0 0.0 0.00 0.92 0.17 58 1014.5
20260506184009 54 323 0.0 1.0 0.00 0.92 0.17 57 1014.5
20260506183510 54 308 0.0 8.0 0.00 0.92 0.17 56 1014.5
20260506183008 54 334 0.0 8.0 0.00 0.92 0.17 57 1014.4
20260506182511 54 355 0.0 3.0 0.00 0.92 0.17 57 1014.6
20260506182007 54 340 0.0 2.0 0.00 0.92 0.17 57 1014.6
20260506181510 55 348 0.0 11.0 0.00 0.92 0.17 62 1014.6
20260506181007 54 348 0.0 9.0 0.00 0.92 0.17 61 1014.7
20260506180507 54 308 0.0 14.0 0.00 0.92 0.17 56 1014.8
20260506180009 55 320 2.0 14.0 0.00 0.92 0.17 56 1014.7
20260506175505 55 16 0.0 13.0 0.00 0.92 0.17 58 1014.6
20260506175006 55 350 6.0 14.0 0.00 0.92 0.17 58 1014.5
20260506174504 55 338 0.0 14.0 0.00 0.92 0.17 57 1014.6
20260506174004 56 22 0.0 13.0 0.00 0.92 0.17 58 1014.4
20260506173506 56 340 2.0 14.0 0.00 0.92 0.17 60 1014.4
20260506173003 56 333 2.0 14.0 0.00 0.92 0.17 61 1014.2
20260506172502 55 9 0.0 6.0 0.00 0.92 0.17 61 1014.4
20260506172002 55 360 0.0 6.0 0.00 0.92 0.17 61 1014.5
20260506171600 55 22 0.0 5.0 0.00 0.92 0.17 64 1014.5
20260506171059 54 321 0.0 0.0 0.00 0.92 0.17 62 1014.6
20260506170600 55 314 0.0 5.0 0.00 0.92 0.17 61 1014.5
20260506170109 55 329 0.0 5.0 0.00 0.92 0.17 60 1014.4
20260506165559 55 355 0.0 3.0 0.00 0.92 0.17 58 1014.5
20260506165101 54 319 0.0 10.0 0.00 0.92 0.17 62 1014.3
20260506164625 54 325 0.0 11.0 0.00 0.92 0.17 61 1014.3
20260506164058 55 321 0.0 12.0 0.00 0.92 0.17 62 1014.4
20260506163600 55 327 2.0 12.0 0.00 0.92 0.17 64 1014.5
20260506163106 55 360 0.0 14.0 0.00 0.92 0.17 65 1014.4
20260506162555 55 355 3.0 14.0 0.00 0.92 0.17 64 1014.3
20260506162055 55 29 1.0 12.0 0.00 0.92 0.17 68 1014.1
20260506161554 54 342 5.0 13.0 0.00 0.92 0.17 63 1014.1
20260506161058 54 355 0.0 13.0 0.00 0.92 0.17 63 1014.2
20260506160553 54 342 4.0 16.0 0.00 0.92 0.17 66 1014.4
20260506160059 54 321 3.0 16.0 0.00 0.92 0.17 64 1014.4
20260506155553 54 321 1.0 11.0 0.00 0.92 0.17 65 1014.4
20260506155050 54 355 0.0 14.0 0.00 0.92 0.17 71 1014.4
20260506154553 54 355 4.0 14.0 0.00 0.92 0.17 70 1014.4
20260506154048 53 9 1.0 13.0 0.00 0.92 0.17 67 1014.1
20260506153549 53 12 2.0 13.0 0.00 0.92 0.17 70 1014.1
20260506153044 53 337 3.0 9.0 0.00 0.92 0.17 69 1013.9
20260506152543 52 335 0.0 11.0 0.00 0.92 0.17 69 1013.7
20260506152045 53 304 6.0 11.0 0.00 0.92 0.17 71 1013.5
20260506151543 52 9 5.0 12.0 0.00 0.92 0.17 74 1013.6
20260506151039 52 11 8.0 12.0 0.00 0.92 0.17 73 1013.6
20260506150539 51 360 0.0 9.0 0.00 0.92 0.17 75 1013.6
20260506150043 51 312 3.0 10.0 0.00 0.92 0.17 72 1013.5
20260506145537 51 355 4.0 10.0 0.00 0.92 0.17 74 1013.6
20260506145036 51 355 4.0 11.0 0.00 0.92 0.17 74 1013.7
20260506144536 50 323 6.0 13.0 0.00 0.92 0.17 76 1013.5
20260506144035 51 314 4.0 13.0 0.00 0.92 0.17 76 1013.6
20260506143533 51 317 5.0 10.0 0.00 0.92 0.17 78 1013.5
20260506143037 50 332 5.0 11.0 0.00 0.92 0.17 78 1013.4
20260506142530 49 327 2.0 11.0 0.00 0.92 0.17 77 1013.5
20260506142028 49 341 4.0 9.0 0.00 0.92 0.17 76 1013.5
20260506141533 49 341 3.0 10.0 0.00 0.92 0.17 77 1013.2
20260506141028 49 315 6.0 13.0 0.00 0.92 0.17 78 1013.3
20260506140528 48 329 4.0 13.0 0.00 0.92 0.17 78 1013.0
20260506140026 48 355 7.0 11.0 0.00 0.92 0.17 78 1013.1
20260506135523 48 279 6.0 11.0 0.00 0.92 0.17 77 1013.0
20260506135022 48 305 5.0 11.0 0.00 0.92 0.17 80 1012.9
20260506134521 47 338 7.0 11.0 0.00 0.92 0.17 80 1012.9
20260506134020 47 350 4.0 9.0 0.00 0.92 0.17 83 1012.8
20260506133518 46 336 6.0 10.0 0.00 0.92 0.17 83 1012.7
20260506133018 46 360 5.0 10.0 0.00 0.92 0.17 83 1012.8
20260506132519 46 331 8.0 10.0 0.00 0.92 0.17 84 1012.7
20260506132015 46 334 4.0 8.0 0.00 0.92 0.17 85 1012.9
20260506131515 45 339 3.0 8.0 0.00 0.92 0.17 86 1012.9
20260506131017 45 312 0.0 0.0 0.00 0.92 0.17 86 1012.9
20260506130514 45 355 0.0 0.0 0.00 0.92 0.17 87 1012.8
20260506130013 45 323 0.0 0.0 0.00 0.92 0.17 86 1012.7
20260506125516 45 327 0.0 0.0 0.00 0.92 0.17 87 1012.7
20260506125010 45 350 0.0 0.0 0.00 0.92 0.17 87 1012.6
20260506124510 45 327 0.0 0.0 0.00 0.92 0.17 87 1012.6
20260506124009 44 304 0.0 0.0 0.00 0.92 0.17 88 1012.6
20260506123508 44 355 0.0 0.0 0.00 0.92 0.17 88 1012.3
20260506123007 44 5 0.0 0.0 0.00 0.92 0.17 88 1012.2
20260506122506 44 340 0.0 0.0 0.00 0.92 0.17 89 1012.2
20260506122007 44 355 0.0 0.0 0.00 0.92 0.17 89 1012.1
20260506121508 44 350 0.0 0.0 0.00 0.92 0.17 89 1012.2
20260506121004 44 323 0.0 0.0 0.00 0.92 0.17 89 1012.1
20260506120502 44 344 0.0 0.0 0.00 0.92 0.17 89 1011.9
20260506120001 44 355 0.0 6.0 0.00 0.92 0.17 89 1011.9
20260506115503 44 336 4.0 8.0 0.00 0.92 0.17 89 1011.9
20260506115000 44 347 4.0 8.0 0.00 0.92 0.17 89 1011.7
20260506114600 44 355 5.0 8.0 0.00 0.92 0.17 90 1011.7
20260506114103 44 344 1.0 5.0 0.00 0.92 0.17 90 1011.5
20260506113558 44 351 0.0 4.0 0.00 0.92 0.17 90 1011.4
20260506113057 44 344 0.0 4.0 0.00 0.92 0.17 90 1011.1
20260506112556 44 336 0.0 1.0 0.00 0.92 0.17 90 1011.0
20260506112054 43 5 0.0 10.0 0.00 0.92 0.17 90 1010.6
20260506111553 43 355 0.0 10.0 0.00 0.92 0.17 91 1010.7
20260506111053 43 360 7.0 10.0 0.00 0.92 0.17 91 1010.6
20260506110552 43 360 2.0 8.0 0.00 0.92 0.17 91 1010.8
20260506110101 43 355 0.0 0.0 0.00 0.92 0.17 91 1010.8
20260506105551 43 5 0.0 9.0 0.00 0.93 0.17 91 1010.6
20260506105050 43 24 2.0 9.0 0.00 0.93 0.17 91 1010.6
20260506104603 43 5 0.0 8.0 0.00 0.93 0.17 91 1010.8
20260506104050 43 9 0.0 0.0 0.00 0.93 0.17 91 1010.7
20260506103549 43 360 0.0 10.0 0.00 0.93 0.17 92 1010.8
20260506103050 43 340 0.0 10.0 0.00 0.93 0.17 92 1010.7
20260506102551 43 360 2.0 10.0 0.00 0.93 0.17 92 1010.3
20260506102052 43 348 4.0 12.0 0.00 0.93 0.17 92 1010.0
20260506101549 43 20 7.0 12.0 0.00 0.93 0.17 92 1010.0
20260506101047 43 355 1.0 14.0 0.00 0.93 0.17 93 1010.0
20260506100546 43 355 0.0 14.0 0.00 0.93 0.17 93 1010.3
20260506100053 43 346 2.0 11.0 0.00 0.93 0.17 93 1010.5
20260506095545 43 345 0.0 12.0 0.00 0.95 0.17 94 1010.2
20260506095044 43 351 0.0 12.0 0.00 0.95 0.17 94 1009.9
20260506094544 44 355 7.0 13.0 0.01 0.95 0.17 94 1009.9
20260506094045 44 344 8.0 14.0 0.01 0.95 0.17 94 1009.8
20260506093543 44 333 10.0 12.0 0.01 0.95 0.17 94 1009.5
20260506093042 44 5 7.0 12.0 0.01 0.95 0.17 94 1009.2
20260506092542 44 355 8.0 11.0 0.01 0.95 0.17 94 1009.2
20260506092045 44 355 1.0 9.0 0.01 0.95 0.17 94 1009.6
20260506091542 44 355 0.0 0.0 0.01 0.95 0.17 94 1009.6
20260506091043 44 5 0.0 0.0 0.01 0.95 0.17 94 1009.1
20260506090541 44 5 0.0 0.0 0.01 0.95 0.17 93 1009.1
20260506090042 44 30 0.0 0.0 0.01 0.95 0.17 93 1008.7
20260506085541 44 33 0.0 6.0 0.01 0.95 0.17 93 1008.8
20260506085041 44 15 1.0 6.0 0.01 0.95 0.17 93 1009.1
20260506084612 44 24 0.0 2.0 0.00 0.94 0.16 93 1009.3
20260506084040 44 15 0.0 10.0 0.00 0.94 0.16 93 1009.6
20260506083539 44 5 5.0 10.0 0.00 0.94 0.16 93 1009.7
20260506083040 44 15 6.0 11.0 0.00 0.94 0.16 93 1009.6
20260506082541 44 13 7.0 11.0 0.00 0.94 0.16 93 1009.7
20260506082039 44 360 7.0 11.0 0.00 0.94 0.16 93 1009.6
20260506081550 44 355 6.0 11.0 0.01 0.94 0.16 94 1009.6
20260506081038 44 17 7.0 11.0 0.01 0.94 0.16 94 1009.5
20260506080539 44 13 9.0 13.0 0.01 0.94 0.16 94 1009.6
20260506073038 44 348 8.0 13.0 0.04 0.94 0.16 95 1009.2
20260506072537 44 347 8.0 17.0 0.05 0.94 0.16 95 1009.2
20260506072037 44 5 11.0 17.0 0.05 0.94 0.16 95 1008.7
20260506071536 44 360 9.0 15.0 0.05 0.93 0.15 95 1009.2
20260506071034 44 360 11.0 15.0 0.05 0.93 0.15 95 1009.0
20260506070533 44 351 10.0 15.0 0.05 0.93 0.15 95 1009.3
20260506062028 45 332 1.0 8.0 0.06 0.94 0.11 95 1009.4
20260506061529 45 329 0.0 1.0 0.06 0.93 0.10 95 1009.3
20260506061028 45 334 0.0 1.0 0.06 0.93 0.10 95 1008.9
20260506060530 45 360 0.0 0.0 0.05 0.92 0.09 95 1009.0
20260506051022 45 15 0.0 4.0 0.04 0.87 0.04 95 1009.5
20260506050522 45 28 0.0 1.0 0.04 0.87 0.04 95 1009.4
20260506045020 45 16 0.0 10.0 0.03 0.86 0.03 94 1009.1
20260506044521 45 24 2.0 10.0 0.02 0.85 0.02 94 1009.2
20260506044019 45 360 0.0 1.0 0.02 0.84 0.01 94 1009.6
20260506043521 45 17 0.0 2.0 0.02 0.84 0.01 94 1009.7
20260506043019 45 20 0.0 2.0 0.02 0.84 0.01 94 1009.7
20260506042518 46 350 0.0 4.0 0.01 0.83 0.00 94 1009.8
20260506042017 46 15 0.0 9.0 0.01 0.83 0.00 94 1009.9
20260506041516 46 5 1.0 11.0 0.01 0.83 0.00 94 1009.7
20260506041016 46 15 0.0 11.0 0.01 0.83 0.00 94 1009.4
20260506040515 46 16 0.0 11.0 0.02 0.83 0.00 94 1009.3
20260506040013 46 34 6.0 11.0 0.02 0.83 0.00 94 1009.2
20260506035512 46 27 5.0 13.0 0.03 0.83 0.83 94 1009.2
20260506035012 46 42 2.0 13.0 0.03 0.83 0.83 94 1009.3
20260506034511 46 33 0.0 0.0 0.03 0.83 0.83 94 1009.1
20260506034010 46 53 0.0 4.0 0.03 0.82 0.82 94 1009.3
20260506033511 46 53 0.0 4.0 0.04 0.82 0.82 95 1009.2
20260506033009 47 61 0.0 4.0 0.04 0.82 0.82 94 1009.2
20260506032509 47 40 0.0 0.0 0.04 0.82 0.82 95 1009.2
20260506032010 47 45 0.0 0.0 0.05 0.82 0.82 95 1009.1
20260506031509 47 40 0.0 5.0 0.05 0.82 0.82 95 1009.1
20260506031009 47 42 0.0 5.0 0.06 0.82 0.82 94 1009.4
20260506030512 47 19 0.0 1.0 0.05 0.81 0.81 94 1009.4
20260506030008 47 24 0.0 2.0 0.06 0.81 0.81 94 1009.5
20260506025507 47 21 0.0 2.0 0.06 0.80 0.80 95 1009.7
20260506025012 47 12 0.0 3.0 0.07 0.80 0.80 95 1009.8
20260506024507 47 5 0.0 9.0 0.07 0.79 0.79 94 1009.9
20260506024008 47 349 0.0 9.0 0.07 0.79 0.79 94 1010.0
20260506023507 47 16 0.0 5.0 0.07 0.78 0.78 94 1010.0
20260506023006 47 360 0.0 11.0 0.08 0.78 0.78 94 1010.1
20260506022506 47 13 1.0 12.0 0.08 0.77 0.77 94 1010.1
20260506022008 47 360 3.0 12.0 0.10 0.77 0.77 94 1010.3
20260506021503 47 360 0.0 10.0 0.11 0.77 0.77 94 1010.2
20260506021002 48 348 1.0 12.0 0.11 0.76 0.76 95 1009.9
20260506020500 48 17 1.0 12.0 0.11 0.75 0.75 94 1009.8
20260506020100 48 5 0.0 10.0 0.12 0.75 0.75 94 1009.8
20260506015600 48 346 0.0 5.0 0.12 0.74 0.74 95 1009.8
20260506015102 48 13 0.0 5.0 0.13 0.73 0.73 94 1009.7
20260506014559 49 10 0.0 1.0 0.14 0.72 0.72 95 1009.7
20260506014102 49 19 0.0 6.0 0.15 0.72 0.72 95 1009.7
20260506013558 49 5 0.0 8.0 0.16 0.71 0.71 94 1009.9
20260506013108 49 9 0.0 5.0 0.17 0.70 0.70 95 1009.7
20260506012557 49 5 0.0 4.0 0.18 0.69 0.69 94 1009.7
20260506012055 49 355 0.0 13.0 0.20 0.68 0.68 94 1009.5
20260506011615 49 360 3.0 15.0 0.21 0.67 0.67 94 1009.3
20260506011054 49 346 3.0 15.0 0.21 0.65 0.65 94 1009.2
20260506010553 49 5 1.0 12.0 0.23 0.64 0.64 95 1008.9
20260506010057 49 13 0.0 8.0 0.24 0.63 0.63 94 1009.1
20260506005555 49 341 0.0 9.0 0.25 0.62 0.62 94 1009.2
20260506005052 49 349 0.0 12.0 0.25 0.60 0.60 94 1009.0
20260506004553 49 360 4.0 12.0 0.25 0.57 0.57 94 1009.0
20260506004051 49 360 0.0 9.0 0.25 0.56 0.56 94 1009.0
20260506003550 50 360 1.0 15.0 0.25 0.55 0.55 94 1009.0
20260506003053 50 360 3.0 15.0 0.24 0.53 0.53 94 1008.9
20260506002547 50 360 2.0 13.0 0.23 0.51 0.51 93 1009.0
20260506002046 51 343 2.0 13.0 0.21 0.48 0.48 93 1008.7
20260506001549 51 347 1.0 16.0 0.19 0.46 0.46 93 1008.4
20260506001045 51 26 6.0 15.0 0.17 0.44 0.44 92 1008.5
20260506000544 52 344 1.0 15.0 0.15 0.41 0.41 91 1008.4
20260506000045 54 340 1.0 15.0 0.13 0.39 0.39 91 1008.3
20260505235544 56 346 0.0 9.0 0.11 0.37 0.37 91 1008.2
20260505235040 58 336 0.0 0.0 0.10 0.35 0.35 94 1007.9
20260505234540 58 275 0.0 0.0 0.08 0.33 0.33 94 1007.8
20260505234040 58 250 0.0 0.0 0.07 0.32 0.32 94 1007.8
20260505233539 58 250 0.0 0.0 0.05 0.30 0.30 94 1007.7
20260505233039 58 250 0.0 0.0 0.04 0.28 0.28 94 1007.6
20260505232539 58 213 0.0 0.0 0.03 0.28 0.28 94 1007.6
20260505232041 58 207 0.0 0.0 0.02 0.27 0.27 94 1007.6